Time,TemperatureF,DewpointF,PressureIn,WindDirection,WindDirectionDegrees,WindSpeedMPH,WindSpeedGustMPH,Humidity,HourlyPrecipIn,Conditions,Clouds,dailyrainin,SolarRadiationWatts/m^2,SoftwareType,DateUTC
2013-09-06 00:04:00,58.1,48.7,30.20,SE,144,0.0,2.0,71,0.00,,,0.00,0,Wunderground v.1.15,2013-09-06 05:04:00,
2013-09-06 00:09:00,58.0,49.0,30.20,SE,144,0.0,2.0,72,0.00,,,0.00,0,Wunderground v.1.15,2013-09-06 05:09:00,
2013-09-06 00:15:00,57.9,48.9,30.20,SE,144,0.0,1.0,72,0.00,,,0.00,0,Wunderground v.1.15,2013-09-06 05:15:00,
2013-09-06 00:20:00,57.8,48.8,30.20,SE,144,1.0,1.0,72,0.00,,,0.00,0,Wunderground v.1.15,2013-09-06 05:20:00,
2013-09-06 00:25:00,57.7,48.7,30.20,SSE,163,0.0,3.0,72,0.00,,,0.00,0,Wunderground v.1.15,2013-09-06 05:25:00,
2013-09-06 00:30:00,57.6,49.0,30.20,SSE,163,0.0,1.0,73,0.00,,,0.00,0,Wunderground v.1.15,2013-09-06 05:30:00,
2013-09-06 00:36:00,57.3,48.7,30.20,SSE,163,1.0,2.0,73,0.00,,,0.00,0,Wunderground v.1.15,2013-09-06 05:36:00,
2013-09-06 00:41:00,57.1,48.9,30.20,SSE,163,0.0,1.0,74,0.00,,,0.00,0,Wunderground v.1.15,2013-09-06 05:41:00,
2013-09-06 00:46:00,56.9,49.1,30.20,SSE,163,0.0,1.0,75,0.00,,,0.00,0,Wunderground v.1.15,2013-09-06 05:46:00,
2013-09-06 00:52:00,56.5,48.7,30.20,SSE,163,0.0,0.0,75,0.00,,,0.00,0,Wunderground v.1.15,2013-09-06 05:52:00,
2013-09-06 00:57:00,56.4,48.6,30.20,SSE,163,0.0,1.0,75,0.00,,,0.00,0,Wunderground v.1.15,2013-09-06 05:57:00,
2013-09-06 01:03:00,56.4,48.6,30.20,SSE,163,0.0,1.0,75,0.00,,,0.00,0,Wunderground v.1.15,2013-09-06 06:03:00,
2013-09-06 01:09:00,56.3,48.8,30.20,SSE,163,1.0,2.0,76,0.00,,,0.00,0,Wunderground v.1.15,2013-09-06 06:09:00,
2013-09-06 01:14:00,56.1,49.0,30.19,SSE,163,0.0,1.0,77,0.00,,,0.00,0,Wunderground v.1.15,2013-09-06 06:14:00,
2013-09-06 01:19:00,55.9,48.8,30.20,SSE,163,0.0,1.0,77,0.00,,,0.00,0,Wunderground v.1.15,2013-09-06 06:19:00,
2013-09-06 01:25:00,55.8,48.7,30.19,SSE,163,0.0,2.0,77,0.00,,,0.00,0,Wunderground v.1.15,2013-09-06 06:25:00,
2013-09-06 01:30:00,55.7,48.9,30.19,SSE,163,0.0,2.0,78,0.00,,,0.00,0,Wunderground v.1.15,2013-09-06 06:30:00,
2013-09-06 01:35:00,55.7,48.9,30.19,SSE,163,0.0,0.0,78,0.00,,,0.00,0,Wunderground v.1.15,2013-09-06 06:35:00,
2013-09-06 01:41:00,55.5,48.8,30.20,SSE,163,0.0,0.0,78,0.00,,,0.00,0,Wunderground v.1.15,2013-09-06 06:41:00,
2013-09-06 01:46:00,55.3,48.9,30.20,SSE,163,0.0,0.0,79,0.00,,,0.00,0,Wunderground v.1.15,2013-09-06 06:46:00,
2013-09-06 01:51:00,55.0,48.9,30.20,SSE,163,0.0,0.0,80,0.00,,,0.00,0,Wunderground v.1.15,2013-09-06 06:51:00,
2013-09-06 01:56:00,54.6,48.6,30.20,SSE,163,1.0,1.0,80,0.00,,,0.00,0,Wunderground v.1.15,2013-09-06 06:56:00,
2013-09-06 02:01:00,54.4,48.7,30.19,SSE,163,0.0,1.0,81,0.00,,,0.00,0,Wunderground v.1.15,2013-09-06 07:01:00,
2013-09-06 02:06:00,54.2,48.8,30.20,SSE,163,0.0,1.0,82,0.00,,,0.00,0,Wunderground v.1.15,2013-09-06 07:06:00,
2013-09-06 02:11:00,54.0,48.6,30.20,SSE,163,0.0,0.0,82,0.00,,,0.00,0,Wunderground v.1.15,2013-09-06 07:11:00,
2013-09-06 02:16:00,54.0,49.0,30.20,SSE,163,0.0,1.0,83,0.00,,,0.00,0,Wunderground v.1.15,2013-09-06 07:16:00,
2013-09-06 02:21:00,54.0,49.0,30.20,SSE,163,0.0,2.0,83,0.00,,,0.00,0,Wunderground v.1.15,2013-09-06 07:21:00,
2013-09-06 02:26:00,54.0,49.0,30.19,SSE,163,1.0,2.0,83,0.00,,,0.00,0,Wunderground v.1.15,2013-09-06 07:26:00,
2013-09-06 02:31:00,54.3,49.2,30.19,SSE,163,0.0,2.0,83,0.00,,,0.00,0,Wunderground v.1.15,2013-09-06 07:31:00,
2013-09-06 02:36:00,54.5,49.1,30.19,SSE,163,1.0,2.0,82,0.00,,,0.00,0,Wunderground v.1.15,2013-09-06 07:36:00,
2013-09-06 02:41:00,54.6,49.2,30.19,SSE,163,0.0,2.0,82,0.00,,,0.00,0,Wunderground v.1.15,2013-09-06 07:41:00,
2013-09-06 02:46:00,54.6,49.2,30.19,SSE,163,0.0,2.0,82,0.00,,,0.00,0,Wunderground v.1.15,2013-09-06 07:46:00,
2013-09-06 02:51:00,54.6,49.5,30.19,SSE,163,0.0,0.0,83,0.00,,,0.00,0,Wunderground v.1.15,2013-09-06 07:51:00,
2013-09-06 02:56:00,54.7,49.6,30.19,SSE,163,0.0,1.0,83,0.00,,,0.00,0,Wunderground v.1.15,2013-09-06 07:56:00,
2013-09-06 03:01:00,54.8,49.7,30.19,SSE,163,0.0,0.0,83,0.00,,,0.00,0,Wunderground v.1.15,2013-09-06 08:01:00,
2013-09-06 03:06:00,54.9,49.8,30.19,SSE,163,0.0,1.0,83,0.00,,,0.00,0,Wunderground v.1.15,2013-09-06 08:06:00,
2013-09-06 03:11:00,54.8,49.7,30.19,SSE,163,0.0,0.0,83,0.00,,,0.00,0,Wunderground v.1.15,2013-09-06 08:11:00,
2013-09-06 03:16:00,54.5,49.4,30.20,SSE,163,0.0,0.0,83,0.00,,,0.00,0,Wunderground v.1.15,2013-09-06 08:16:00,
2013-09-06 03:21:00,54.3,49.2,30.20,SSE,163,0.0,0.0,83,0.00,,,0.00,0,Wunderground v.1.15,2013-09-06 08:21:00,
2013-09-06 03:26:00,54.1,49.4,30.19,SSE,163,0.0,1.0,84,0.00,,,0.00,0,Wunderground v.1.15,2013-09-06 08:26:00,
2013-09-06 03:31:00,54.1,49.7,30.20,SSE,163,0.0,1.0,85,0.00,,,0.00,0,Wunderground v.1.15,2013-09-06 08:31:00,
2013-09-06 03:36:00,54.1,49.7,30.20,SSE,161,1.0,4.0,85,0.00,,,0.00,0,Wunderground v.1.15,2013-09-06 08:36:00,
2013-09-06 03:41:00,54.4,50.3,30.19,SSE,161,2.0,4.0,86,0.00,,,0.00,0,Wunderground v.1.15,2013-09-06 08:41:00,
2013-09-06 03:46:00,55.1,50.7,30.20,SSE,161,4.0,5.0,85,0.00,,,0.00,0,Wunderground v.1.15,2013-09-06 08:46:00,
2013-09-06 03:51:00,55.6,51.2,30.19,SSE,161,2.0,4.0,85,0.00,,,0.00,0,Wunderground v.1.15,2013-09-06 08:51:00,
2013-09-06 03:56:00,56.1,51.3,30.19,SSE,161,0.0,4.0,84,0.00,,,0.00,0,Wunderground v.1.15,2013-09-06 08:56:00,
2013-09-06 04:01:00,56.3,51.2,30.19,SSE,161,0.0,1.0,83,0.00,,,0.00,0,Wunderground v.1.15,2013-09-06 09:01:00,
2013-09-06 04:06:00,56.4,51.3,30.19,SSE,161,0.0,1.0,83,0.00,,,0.00,0,Wunderground v.1.15,2013-09-06 09:06:00,
2013-09-06 04:11:00,56.4,51.3,30.19,SSE,161,0.0,0.0,83,0.00,,,0.00,0,Wunderground v.1.15,2013-09-06 09:11:00,
2013-09-06 04:16:00,56.4,51.3,30.19,SSE,161,0.0,0.0,83,0.00,,,0.00,0,Wunderground v.1.15,2013-09-06 09:16:00,
2013-09-06 04:21:00,56.3,51.2,30.19,SSE,161,0.0,0.0,83,0.00,,,0.00,0,Wunderground v.1.15,2013-09-06 09:21:00,
2013-09-06 04:26:00,56.2,51.1,30.19,SSE,161,0.0,0.0,83,0.00,,,0.00,0,Wunderground v.1.15,2013-09-06 09:26:00,
2013-09-06 04:31:00,56.2,51.4,30.19,SSE,163,3.0,5.0,84,0.00,,,0.00,0,Wunderground v.1.15,2013-09-06 09:31:00,
2013-09-06 04:37:00,56.7,52.2,30.19,South,173,2.0,5.0,85,0.00,,,0.00,0,Wunderground v.1.15,2013-09-06 09:37:00,
2013-09-06 04:42:00,57.3,52.5,30.19,SSE,151,0.0,3.0,84,0.00,,,0.00,0,Wunderground v.1.15,2013-09-06 09:42:00,
2013-09-06 04:47:00,57.7,52.6,30.19,SSE,164,3.0,4.0,83,0.00,,,0.00,0,Wunderground v.1.15,2013-09-06 09:47:00,
2013-09-06 04:52:00,58.2,52.7,30.19,SSE,167,1.0,5.0,82,0.00,,,0.00,0,Wunderground v.1.15,2013-09-06 09:52:00,
2013-09-06 04:57:00,58.6,52.8,30.19,SSE,165,1.0,5.0,81,0.00,,,0.00,0,Wunderground v.1.15,2013-09-06 09:57:00,
2013-09-06 05:02:00,58.8,53.0,30.19,SSE,161,2.0,4.0,81,0.00,,,0.00,0,Wunderground v.1.15,2013-09-06 10:02:00,
2013-09-06 05:07:00,59.0,53.2,30.19,SSE,157,5.0,8.0,81,0.00,,,0.00,0,Wunderground v.1.15,2013-09-06 10:07:00,
2013-09-06 05:12:00,59.3,53.1,30.19,ESE,117,3.0,5.0,80,0.00,,,0.00,0,Wunderground v.1.15,2013-09-06 10:12:00,
2013-09-06 05:17:00,59.6,53.4,30.19,SSE,164,2.0,5.0,80,0.00,,,0.00,0,Wunderground v.1.15,2013-09-06 10:17:00,
2013-09-06 05:22:00,59.8,53.3,30.19,SSE,164,0.0,2.0,79,0.00,,,0.00,0,Wunderground v.1.15,2013-09-06 10:22:00,
2013-09-06 05:27:00,59.9,53.4,30.19,SSE,164,2.0,3.0,79,0.00,,,0.00,0,Wunderground v.1.15,2013-09-06 10:27:00,
2013-09-06 05:32:00,59.8,53.3,30.19,SSE,147,3.0,5.0,79,0.00,,,0.00,0,Wunderground v.1.15,2013-09-06 10:32:00,
2013-09-06 05:37:00,59.8,53.3,30.19,SSE,148,3.0,5.0,79,0.00,,,0.00,0,Wunderground v.1.15,2013-09-06 10:37:00,
2013-09-06 05:42:00,59.9,53.4,30.19,SSE,151,3.0,5.0,79,0.00,,,0.00,0,Wunderground v.1.15,2013-09-06 10:42:00,
2013-09-06 05:47:00,60.0,53.5,30.19,South,169,2.0,6.0,79,0.00,,,0.00,0,Wunderground v.1.15,2013-09-06 10:47:00,
2013-09-06 05:52:00,60.1,53.6,30.19,South,180,1.0,4.0,79,0.00,,,0.00,0,Wunderground v.1.15,2013-09-06 10:52:00,
2013-09-06 05:57:00,60.2,54.0,30.19,South,173,0.0,6.0,80,0.00,,,0.00,0,Wunderground v.1.15,2013-09-06 10:57:00,
2013-09-06 06:02:00,60.3,54.4,30.19,South,173,1.0,2.0,81,0.00,,,0.00,0,Wunderground v.1.15,2013-09-06 11:02:00,
2013-09-06 06:07:00,60.5,54.6,30.19,South,169,2.0,4.0,81,0.00,,,0.00,0,Wunderground v.1.15,2013-09-06 11:07:00,
2013-09-06 06:12:00,60.7,54.8,30.19,SSE,167,1.0,2.0,81,0.00,,,0.00,0,Wunderground v.1.15,2013-09-06 11:12:00,
2013-09-06 06:17:00,60.8,54.9,30.19,SSE,167,0.0,2.0,81,0.00,,,0.00,0,Wunderground v.1.15,2013-09-06 11:17:00,
2013-09-06 06:22:00,60.9,55.0,30.19,SSE,168,0.0,4.0,81,0.00,,,0.00,0,Wunderground v.1.15,2013-09-06 11:22:00,
2013-09-06 06:27:00,60.9,54.7,30.19,SSE,164,0.0,4.0,80,0.00,,,0.00,0,Wunderground v.1.15,2013-09-06 11:27:00,
2013-09-06 06:32:00,60.8,54.2,30.19,SSE,166,1.0,3.0,79,0.00,,,0.00,5,Wunderground v.1.15,2013-09-06 11:32:00,
2013-09-06 06:37:00,60.8,54.6,30.19,South,170,1.0,5.0,80,0.00,,,0.00,11,Wunderground v.1.15,2013-09-06 11:37:00,
2013-09-06 06:42:00,60.8,54.6,30.19,South,169,2.0,5.0,80,0.00,,,0.00,14,Wunderground v.1.15,2013-09-06 11:42:00,
2013-09-06 06:47:00,60.8,54.6,30.19,South,185,1.0,5.0,80,0.00,,,0.00,18,Wunderground v.1.15,2013-09-06 11:47:00,
2013-09-06 06:52:00,60.8,54.6,30.19,SSW,209,2.0,3.0,80,0.00,,,0.00,23,Wunderground v.1.15,2013-09-06 11:52:00,
2013-09-06 06:57:00,60.8,54.6,30.19,South,173,2.0,5.0,80,0.00,,,0.00,28,Wunderground v.1.15,2013-09-06 11:57:00,
2013-09-06 07:02:00,60.8,54.6,30.19,SSE,163,1.0,3.0,80,0.00,,,0.00,37,Wunderground v.1.15,2013-09-06 12:02:00,
2013-09-06 07:07:00,60.8,54.9,30.19,SSE,163,2.0,5.0,81,0.00,,,0.00,44,Wunderground v.1.15,2013-09-06 12:07:00,
2013-09-06 07:12:00,60.9,55.0,30.19,SSE,163,3.0,3.0,81,0.00,,,0.00,62,Wunderground v.1.15,2013-09-06 12:12:00,
2013-09-06 07:17:00,61.1,55.2,30.19,South,175,0.0,6.0,81,0.00,,,0.00,74,Wunderground v.1.15,2013-09-06 12:17:00,
2013-09-06 07:22:00,61.3,55.4,30.19,SSE,156,2.0,5.0,81,0.00,,,0.00,69,Wunderground v.1.15,2013-09-06 12:22:00,
2013-09-06 07:27:00,61.5,55.6,30.19,SSE,164,1.0,6.0,81,0.00,,,0.00,102,Wunderground v.1.15,2013-09-06 12:27:00,
2013-09-06 07:32:00,61.8,55.9,30.19,SSE,164,3.0,6.0,81,0.00,,,0.00,95,Wunderground v.1.15,2013-09-06 12:32:00,
2013-09-06 07:37:00,62.0,55.8,30.19,SSE,165,3.0,7.0,80,0.00,,,0.00,79,Wunderground v.1.15,2013-09-06 12:37:00,
2013-09-06 07:42:00,62.2,56.3,30.18,SE,142,2.0,5.0,81,0.00,,,0.00,88,Wunderground v.1.15,2013-09-06 12:42:00,
2013-09-06 07:48:00,62.3,56.4,30.18,SSE,165,0.0,5.0,81,0.00,,,0.00,206,Wunderground v.1.15,2013-09-06 12:48:00,
2013-09-06 07:53:00,62.5,56.6,30.18,SSE,165,4.0,5.0,81,0.00,,,0.00,241,Wunderground v.1.15,2013-09-06 12:53:00,
2013-09-06 07:58:00,62.9,56.6,30.18,SSE,164,0.0,6.0,80,0.00,,,0.00,206,Wunderground v.1.15,2013-09-06 12:58:00,
2013-09-06 08:03:00,63.2,56.9,30.18,SSE,167,5.0,7.0,80,0.00,,,0.00,193,Wunderground v.1.15,2013-09-06 13:03:00,
2013-09-06 08:08:00,63.6,57.0,30.18,SSE,163,0.0,7.0,79,0.00,,,0.00,144,Wunderground v.1.15,2013-09-06 13:08:00,
2013-09-06 08:13:00,63.8,57.5,30.17,SE,141,4.0,5.0,80,0.00,,,0.00,271,Wunderground v.1.15,2013-09-06 13:13:00,
2013-09-06 08:18:00,64.2,57.2,30.17,South,173,1.0,6.0,78,0.00,,,0.00,279,Wunderground v.1.15,2013-09-06 13:18:00,
2013-09-06 08:23:00,64.5,57.8,30.17,SSE,165,3.0,4.0,79,0.00,,,0.00,292,Wunderground v.1.15,2013-09-06 13:23:00,
2013-09-06 08:28:00,64.8,57.4,30.16,SSE,166,5.0,7.0,77,0.00,,,0.00,302,Wunderground v.1.15,2013-09-06 13:28:00,
2013-09-06 08:33:00,65.1,57.7,30.15,SW,215,0.0,6.0,77,0.00,,,0.00,315,Wunderground v.1.15,2013-09-06 13:33:00,
2013-09-06 08:38:00,65.5,57.0,30.15,SW,229,0.0,9.0,74,0.00,,,0.00,334,Wunderground v.1.15,2013-09-06 13:38:00,
2013-09-06 08:43:00,65.7,57.2,30.15,SSE,157,3.0,6.0,74,0.00,,,0.00,352,Wunderground v.1.15,2013-09-06 13:43:00,
2013-09-06 08:48:00,66.0,57.1,30.15,SSW,195,3.0,7.0,73,0.00,,,0.00,362,Wunderground v.1.15,2013-09-06 13:48:00,
2013-09-06 08:53:00,66.2,57.3,30.15,South,178,2.0,6.0,73,0.00,,,0.00,378,Wunderground v.1.15,2013-09-06 13:53:00,
2013-09-06 08:58:00,66.5,57.2,30.15,SSE,155,5.0,8.0,72,0.00,,,0.00,394,Wunderground v.1.15,2013-09-06 13:58:00,
2013-09-06 09:03:00,66.7,57.4,30.15,South,190,2.0,5.0,72,0.00,,,0.00,418,Wunderground v.1.15,2013-09-06 14:03:00,
2013-09-06 09:08:00,67.0,57.7,30.15,SSW,194,2.0,6.0,72,0.00,,,0.00,408,Wunderground v.1.15,2013-09-06 14:08:00,
2013-09-06 09:13:00,67.3,58.0,30.15,SE,142,2.0,6.0,72,0.00,,,0.00,448,Wunderground v.1.15,2013-09-06 14:13:00,
2013-09-06 09:18:00,67.6,57.5,30.15,South,186,2.0,7.0,70,0.00,,,0.00,454,Wunderground v.1.15,2013-09-06 14:18:00,
2013-09-06 09:23:00,67.7,58.0,30.15,SSE,165,5.0,7.0,71,0.00,,,0.00,469,Wunderground v.1.15,2013-09-06 14:23:00,
2013-09-06 09:28:00,67.9,58.5,30.15,SSE,164,0.0,7.0,72,0.00,,,0.00,478,Wunderground v.1.15,2013-09-06 14:28:00,
2013-09-06 09:33:00,68.2,58.0,30.15,South,178,2.0,6.0,70,0.00,,,0.00,487,Wunderground v.1.15,2013-09-06 14:33:00,
2013-09-06 09:38:00,68.4,58.2,30.15,SSE,161,2.0,7.0,70,0.00,,,0.00,503,Wunderground v.1.15,2013-09-06 14:38:00,
2013-09-06 09:43:00,68.7,58.9,30.15,SSE,165,2.0,5.0,71,0.00,,,0.00,515,Wunderground v.1.15,2013-09-06 14:43:00,
2013-09-06 09:48:00,69.1,58.9,30.15,South,173,2.0,5.0,70,0.00,,,0.00,526,Wunderground v.1.15,2013-09-06 14:48:00,
2013-09-06 09:53:00,69.5,58.9,30.15,SSE,163,5.0,6.0,69,0.00,,,0.00,536,Wunderground v.1.15,2013-09-06 14:53:00,
2013-09-06 09:58:00,69.7,59.5,30.15,SSE,162,2.0,6.0,70,0.00,,,0.00,548,Wunderground v.1.15,2013-09-06 14:58:00,
2013-09-06 10:03:00,70.1,59.5,30.15,South,172,1.0,5.0,69,0.00,,,0.00,561,Wunderground v.1.15,2013-09-06 15:03:00,
2013-09-06 10:08:00,70.4,59.3,30.14,SSE,157,3.0,8.0,68,0.00,,,0.00,570,Wunderground v.1.15,2013-09-06 15:08:00,
2013-09-06 10:13:00,70.8,59.7,30.14,SSE,155,0.0,5.0,68,0.00,,,0.00,582,Wunderground v.1.15,2013-09-06 15:13:00,
2013-09-06 10:18:00,71.1,60.0,30.14,SSE,151,6.0,8.0,68,0.00,,,0.00,591,Wunderground v.1.15,2013-09-06 15:18:00,
2013-09-06 10:23:00,71.7,61.0,30.14,South,190,1.0,8.0,69,0.00,,,0.00,603,Wunderground v.1.15,2013-09-06 15:23:00,
2013-09-06 10:29:00,72.2,61.0,30.13,SSE,155,4.0,8.0,68,0.00,,,0.00,615,Wunderground v.1.15,2013-09-06 15:29:00,
2013-09-06 10:34:00,72.7,61.5,30.13,South,171,0.0,6.0,68,0.00,,,0.00,624,Wunderground v.1.15,2013-09-06 15:34:00,
2013-09-06 10:39:00,73.2,61.6,30.13,West,261,0.0,7.0,67,0.00,,,0.00,635,Wunderground v.1.15,2013-09-06 15:39:00,
2013-09-06 10:44:00,73.7,61.6,30.13,South,173,4.0,7.0,66,0.00,,,0.00,642,Wunderground v.1.15,2013-09-06 15:44:00,
2013-09-06 10:49:00,74.1,62.0,30.13,SSE,157,0.0,7.0,66,0.00,,,0.00,650,Wunderground v.1.15,2013-09-06 15:49:00,
2013-09-06 10:54:00,74.6,61.6,30.13,SSE,157,3.0,6.0,64,0.00,,,0.00,657,Wunderground v.1.15,2013-09-06 15:54:00,
2013-09-06 10:59:00,74.7,62.1,30.13,SE,142,4.0,8.0,65,0.00,,,0.00,666,Wunderground v.1.15,2013-09-06 15:59:00,
2013-09-06 11:04:00,74.7,61.7,30.13,SSE,165,4.0,7.0,64,0.00,,,0.00,675,Wunderground v.1.15,2013-09-06 16:04:00,
2013-09-06 11:09:00,74.8,62.2,30.13,South,187,3.0,7.0,65,0.00,,,0.00,682,Wunderground v.1.15,2013-09-06 16:09:00,
2013-09-06 11:14:00,75.0,62.4,30.13,SE,130,1.0,7.0,65,0.00,,,0.00,691,Wunderground v.1.15,2013-09-06 16:14:00,
2013-09-06 11:19:00,75.3,62.7,30.13,SSE,161,4.0,7.0,65,0.00,,,0.00,675,Wunderground v.1.15,2013-09-06 16:19:00,
2013-09-06 11:24:00,75.6,63.0,30.13,SSE,167,1.0,6.0,65,0.00,,,0.00,705,Wunderground v.1.15,2013-09-06 16:24:00,
2013-09-06 11:29:00,76.1,63.0,30.13,SSE,159,2.0,6.0,64,0.00,,,0.00,714,Wunderground v.1.15,2013-09-06 16:29:00,
2013-09-06 11:34:00,76.4,62.9,30.13,SSE,167,0.0,6.0,63,0.00,,,0.00,715,Wunderground v.1.15,2013-09-06 16:34:00,
2013-09-06 11:39:00,76.6,63.5,30.13,SSE,165,0.0,7.0,64,0.00,,,0.00,721,Wunderground v.1.15,2013-09-06 16:39:00,
2013-09-06 11:44:00,76.7,63.6,30.13,SSE,147,3.0,7.0,64,0.00,,,0.00,724,Wunderground v.1.15,2013-09-06 16:44:00,
2013-09-06 11:49:00,76.9,63.3,30.12,South,178,4.0,7.0,63,0.00,,,0.00,726,Wunderground v.1.15,2013-09-06 16:49:00,
2013-09-06 11:54:00,76.9,63.8,30.12,SSE,155,2.0,7.0,64,0.00,,,0.00,717,Wunderground v.1.15,2013-09-06 16:54:00,
2013-09-06 12:00:00,77.0,63.9,30.11,SSE,161,0.0,3.0,64,0.00,,,0.00,740,Wunderground v.1.15,2013-09-06 17:00:00,
2013-09-06 12:05:00,77.3,64.2,30.12,SSE,151,6.0,6.0,64,0.00,,,0.00,747,Wunderground v.1.15,2013-09-06 17:05:00,
2013-09-06 12:10:00,77.6,64.5,30.12,ESE,121,1.0,3.0,64,0.00,,,0.00,749,Wunderground v.1.15,2013-09-06 17:10:00,
2013-09-06 12:15:00,78.0,64.4,30.11,SSE,161,0.0,6.0,63,0.00,,,0.00,752,Wunderground v.1.15,2013-09-06 17:15:00,
2013-09-06 12:20:00,78.3,64.7,30.11,WSW,242,1.0,3.0,63,0.00,,,0.00,756,Wunderground v.1.15,2013-09-06 17:20:00,
2013-09-06 12:25:00,78.8,64.7,30.11,SSE,166,2.0,6.0,62,0.00,,,0.00,756,Wunderground v.1.15,2013-09-06 17:25:00,
2013-09-06 12:30:00,79.1,65.4,30.10,SSE,165,1.0,3.0,63,0.00,,,0.00,759,Wunderground v.1.15,2013-09-06 17:30:00,
2013-09-06 12:35:00,79.3,64.7,30.09,SSE,165,1.0,6.0,61,0.00,,,0.00,759,Wunderground v.1.15,2013-09-06 17:35:00,
2013-09-06 12:40:00,79.4,64.8,30.09,SSE,153,4.0,6.0,61,0.00,,,0.00,763,Wunderground v.1.15,2013-09-06 17:40:00,
2013-09-06 12:45:00,79.6,65.0,30.09,SSE,160,2.0,7.0,61,0.00,,,0.00,765,Wunderground v.1.15,2013-09-06 17:45:00,
2013-09-06 12:50:00,80.0,65.3,30.09,South,169,4.0,4.0,61,0.00,,,0.00,761,Wunderground v.1.15,2013-09-06 17:50:00,
2013-09-06 12:55:00,80.2,66.0,30.09,SSE,159,3.0,6.0,62,0.00,,,0.00,761,Wunderground v.1.15,2013-09-06 17:55:00,
2013-09-06 13:00:00,80.4,66.2,30.09,South,171,0.0,3.0,62,0.00,,,0.00,763,Wunderground v.1.15,2013-09-06 18:00:00,
2013-09-06 13:05:00,80.9,66.7,30.08,SSE,151,4.0,7.0,62,0.00,,,0.00,765,Wunderground v.1.15,2013-09-06 18:05:00,
2013-09-06 13:10:00,81.1,65.9,30.08,SSE,160,4.0,4.0,60,0.00,,,0.00,763,Wunderground v.1.15,2013-09-06 18:10:00,
2013-09-06 13:15:00,81.3,66.6,30.08,SSE,160,3.0,7.0,61,0.00,,,0.00,758,Wunderground v.1.15,2013-09-06 18:15:00,
2013-09-06 13:20:00,81.5,66.3,30.08,South,190,1.0,6.0,60,0.00,,,0.00,756,Wunderground v.1.15,2013-09-06 18:20:00,
2013-09-06 13:25:00,81.7,67.4,30.07,SSE,156,3.0,6.0,62,0.00,,,0.00,756,Wunderground v.1.15,2013-09-06 18:25:00,
2013-09-06 13:30:00,82.1,67.3,30.07,SSW,194,7.0,8.0,61,0.00,,,0.00,754,Wunderground v.1.15,2013-09-06 18:30:00,
2013-09-06 13:35:00,82.3,67.5,30.07,SSE,160,5.0,8.0,61,0.00,,,0.00,745,Wunderground v.1.15,2013-09-06 18:35:00,
2013-09-06 13:40:00,82.5,68.2,30.07,SSE,156,0.0,4.0,62,0.00,,,0.00,742,Wunderground v.1.15,2013-09-06 18:40:00,
2013-09-06 13:45:00,82.7,67.9,30.06,SSE,165,4.0,9.0,61,0.00,,,0.00,740,Wunderground v.1.15,2013-09-06 18:45:00,
2013-09-06 13:50:00,82.9,68.1,30.06,WSW,254,2.0,4.0,61,0.00,,,0.00,744,Wunderground v.1.15,2013-09-06 18:50:00,
2013-09-06 13:55:00,83.6,68.7,30.05,South,175,0.0,6.0,61,0.00,,,0.00,731,Wunderground v.1.15,2013-09-06 18:55:00,
2013-09-06 14:00:00,84.1,67.7,30.05,SSW,213,0.0,2.0,58,0.00,,,0.00,731,Wunderground v.1.15,2013-09-06 19:00:00,
2013-09-06 14:05:00,84.4,68.5,30.04,SSE,164,0.0,6.0,59,0.00,,,0.00,719,Wunderground v.1.15,2013-09-06 19:05:00,
2013-09-06 14:11:00,84.6,68.2,30.05,SSE,165,2.0,2.0,58,0.00,,,0.00,712,Wunderground v.1.15,2013-09-06 19:11:00,
2013-09-06 14:16:00,84.7,67.8,30.05,SSE,167,0.0,9.0,57,0.00,,,0.00,705,Wunderground v.1.15,2013-09-06 19:16:00,
2013-09-06 14:21:00,84.8,68.9,30.04,SSW,207,6.0,7.0,59,0.00,,,0.00,700,Wunderground v.1.15,2013-09-06 19:21:00,
2013-09-06 14:26:00,84.6,68.2,30.04,SSE,163,2.0,9.0,58,0.00,,,0.00,691,Wunderground v.1.15,2013-09-06 19:26:00,
2013-09-06 14:31:00,84.5,68.1,30.03,SSW,211,6.0,6.0,58,0.00,,,0.00,689,Wunderground v.1.15,2013-09-06 19:31:00,
2013-09-06 14:36:00,84.6,68.7,30.03,SW,221,1.0,8.0,59,0.00,,,0.00,680,Wunderground v.1.15,2013-09-06 19:36:00,
2013-09-06 14:41:00,84.8,68.9,30.03,SSW,207,2.0,3.0,59,0.00,,,0.00,661,Wunderground v.1.15,2013-09-06 19:41:00,
2013-09-06 14:46:00,85.1,68.7,30.02,SSW,208,3.0,10.0,58,0.00,,,0.00,661,Wunderground v.1.15,2013-09-06 19:46:00,
2013-09-06 14:51:00,85.2,68.8,30.02,WSW,254,0.0,2.0,58,0.00,,,0.00,652,Wunderground v.1.15,2013-09-06 19:51:00,
2013-09-06 14:56:00,85.6,68.6,30.03,SW,229,0.0,5.0,57,0.00,,,0.00,645,Wunderground v.1.15,2013-09-06 19:56:00,
2013-09-06 15:01:00,85.7,68.2,30.03,WSW,243,2.0,3.0,56,0.00,,,0.00,631,Wunderground v.1.15,2013-09-06 20:01:00,
2013-09-06 15:06:00,85.9,69.4,30.03,SSE,165,3.0,6.0,58,0.00,,,0.00,643,Wunderground v.1.15,2013-09-06 20:06:00,
2013-09-06 15:11:00,86.0,69.0,30.02,SSW,200,1.0,2.0,57,0.00,,,0.00,640,Wunderground v.1.15,2013-09-06 20:11:00,
2013-09-06 15:16:00,86.1,69.1,30.02,South,177,2.0,10.0,57,0.00,,,0.00,635,Wunderground v.1.15,2013-09-06 20:16:00,
2013-09-06 15:21:00,86.1,69.1,30.02,West,263,3.0,3.0,57,0.00,,,0.00,638,Wunderground v.1.15,2013-09-06 20:21:00,
2013-09-06 15:26:00,86.0,69.0,30.02,SSE,159,3.0,5.0,57,0.00,,,0.00,621,Wunderground v.1.15,2013-09-06 20:26:00,
2013-09-06 15:31:00,85.7,68.7,30.01,WSW,241,1.0,3.0,57,0.00,,,0.00,561,Wunderground v.1.15,2013-09-06 20:31:00,
2013-09-06 15:36:00,85.6,69.1,30.01,SSE,163,3.0,7.0,58,0.00,,,0.00,657,Wunderground v.1.15,2013-09-06 20:36:00,
2013-09-06 15:41:00,85.5,69.0,30.01,SSE,167,1.0,5.0,58,0.00,,,0.00,635,Wunderground v.1.15,2013-09-06 20:41:00,
2013-09-06 15:46:00,85.4,68.9,30.01,SW,235,2.0,10.0,58,0.00,,,0.00,603,Wunderground v.1.15,2013-09-06 20:46:00,
2013-09-06 15:51:00,85.2,69.3,30.01,SSE,156,3.0,5.0,59,0.00,,,0.00,171,Wunderground v.1.15,2013-09-06 20:51:00,
2013-09-06 15:56:00,84.9,68.5,30.01,South,188,1.0,5.0,58,0.00,,,0.00,144,Wunderground v.1.15,2013-09-06 20:56:00,
2013-09-06 16:01:00,84.6,68.7,30.01,South,178,0.0,4.0,59,0.00,,,0.00,570,Wunderground v.1.15,2013-09-06 21:01:00,
2013-09-06 16:06:00,84.4,68.5,30.01,SSE,161,2.0,4.0,59,0.00,,,0.00,580,Wunderground v.1.15,2013-09-06 21:06:00,
2013-09-06 16:11:00,84.4,68.5,30.01,SSE,155,3.0,6.0,59,0.00,,,0.00,167,Wunderground v.1.15,2013-09-06 21:11:00,
2013-09-06 16:17:00,84.4,68.5,30.00,SSE,148,0.0,6.0,59,0.00,,,0.00,468,Wunderground v.1.15,2013-09-06 21:17:00,
2013-09-06 16:22:00,84.2,68.8,30.01,South,173,1.0,4.0,60,0.00,,,0.00,135,Wunderground v.1.15,2013-09-06 21:22:00,
2013-09-06 16:27:00,83.8,68.4,30.00,South,170,7.0,7.0,60,0.00,,,0.00,489,Wunderground v.1.15,2013-09-06 21:27:00,
2013-09-06 16:32:00,83.8,68.4,30.00,SW,222,1.0,2.0,60,0.00,,,0.00,466,Wunderground v.1.15,2013-09-06 21:32:00,
2013-09-06 16:37:00,83.9,68.5,30.00,West,259,0.0,7.0,60,0.00,,,0.00,396,Wunderground v.1.15,2013-09-06 21:37:00,
2013-09-06 16:42:00,83.9,69.0,30.00,SSE,159,0.0,2.0,61,0.00,,,0.00,109,Wunderground v.1.15,2013-09-06 21:42:00,
2013-09-06 16:47:00,83.8,68.9,30.00,SSW,211,1.0,6.0,61,0.00,,,0.00,415,Wunderground v.1.15,2013-09-06 21:47:00,
2013-09-06 16:52:00,83.8,68.4,30.00,WNW,286,2.0,3.0,60,0.00,,,0.00,144,Wunderground v.1.15,2013-09-06 21:52:00,
2013-09-06 16:57:00,83.8,68.4,29.99,SSW,201,0.0,6.0,60,0.00,,,0.00,144,Wunderground v.1.15,2013-09-06 21:57:00,
2013-09-06 17:02:00,83.7,68.8,30.00,SW,236,0.0,7.0,61,0.00,,,0.00,346,Wunderground v.1.15,2013-09-06 22:02:00,
2013-09-06 17:07:00,83.7,68.3,29.99,SW,226,1.0,7.0,60,0.00,,,0.00,323,Wunderground v.1.15,2013-09-06 22:07:00,
2013-09-06 17:12:00,83.8,67.9,30.00,SSE,156,0.0,3.0,59,0.00,,,0.00,313,Wunderground v.1.15,2013-09-06 22:12:00,
2013-09-06 17:17:00,83.9,68.5,29.99,South,175,0.0,3.0,60,0.00,,,0.00,297,Wunderground v.1.15,2013-09-06 22:17:00,
2013-09-06 17:22:00,83.9,68.0,29.99,South,182,1.0,6.0,59,0.00,,,0.00,283,Wunderground v.1.15,2013-09-06 22:22:00,
2013-09-06 17:27:00,83.8,67.9,29.99,South,169,1.0,6.0,59,0.00,,,0.00,269,Wunderground v.1.15,2013-09-06 22:27:00,
2013-09-06 17:32:00,83.7,67.8,29.99,SSE,159,4.0,7.0,59,0.00,,,0.00,251,Wunderground v.1.15,2013-09-06 22:32:00,
2013-09-06 17:37:00,83.6,67.8,30.00,South,175,1.0,7.0,59,0.00,,,0.00,239,Wunderground v.1.15,2013-09-06 22:37:00,
2013-09-06 17:42:00,83.6,67.8,29.99,SSE,164,0.0,5.0,59,0.00,,,0.00,227,Wunderground v.1.15,2013-09-06 22:42:00,
2013-09-06 17:47:00,83.5,67.7,29.99,SSE,148,0.0,5.0,59,0.00,,,0.00,202,Wunderground v.1.15,2013-09-06 22:47:00,
2013-09-06 17:52:00,83.4,68.1,29.99,SSE,148,0.0,1.0,60,0.00,,,0.00,174,Wunderground v.1.15,2013-09-06 22:52:00,
2013-09-06 17:57:00,83.2,67.9,29.99,WSW,242,3.0,4.0,60,0.00,,,0.00,83,Wunderground v.1.15,2013-09-06 22:57:00,
2013-09-06 18:02:00,83.0,67.2,29.99,WSW,244,1.0,3.0,59,0.00,,,0.00,56,Wunderground v.1.15,2013-09-06 23:02:00,
2013-09-06 18:07:00,82.8,67.0,30.00,West,260,0.0,5.0,59,0.00,,,0.00,47,Wunderground v.1.15,2013-09-06 23:07:00,
2013-09-06 18:12:00,82.6,66.8,29.99,WSW,243,0.0,3.0,59,0.00,,,0.00,46,Wunderground v.1.15,2013-09-06 23:12:00,
2013-09-06 18:17:00,82.4,67.1,29.99,SSE,159,0.0,3.0,60,0.00,,,0.00,51,Wunderground v.1.15,2013-09-06 23:17:00,
2013-09-06 18:22:00,82.2,66.4,29.99,SW,218,0.0,3.0,59,0.00,,,0.00,42,Wunderground v.1.15,2013-09-06 23:22:00,
2013-09-06 18:27:00,82.0,66.7,29.99,SW,214,1.0,3.0,60,0.00,,,0.00,44,Wunderground v.1.15,2013-09-06 23:27:00,
2013-09-06 18:32:00,81.8,66.6,29.98,SW,214,0.0,2.0,60,0.00,,,0.00,37,Wunderground v.1.15,2013-09-06 23:32:00,
2013-09-06 18:37:00,81.6,66.4,29.98,SW,214,0.0,2.0,60,0.00,,,0.00,30,Wunderground v.1.15,2013-09-06 23:37:00,
2013-09-06 18:42:00,81.4,66.7,29.98,South,186,0.0,4.0,61,0.00,,,0.00,28,Wunderground v.1.15,2013-09-06 23:42:00,
2013-09-06 18:47:00,81.1,66.4,29.98,SSW,194,0.0,4.0,61,0.00,,,0.00,26,Wunderground v.1.15,2013-09-06 23:47:00,
2013-09-06 18:52:00,80.9,66.2,29.98,SSW,201,1.0,1.0,61,0.00,,,0.00,23,Wunderground v.1.15,2013-09-06 23:52:00,
2013-09-06 18:57:00,80.7,66.5,29.97,SSE,168,0.0,5.0,62,0.00,,,0.00,19,Wunderground v.1.15,2013-09-06 23:57:00,
2013-09-06 19:02:00,80.5,66.7,29.97,SSE,165,0.0,1.0,63,0.00,,,0.00,18,Wunderground v.1.15,2013-09-07 00:02:00,
2013-09-06 19:07:00,80.2,66.9,29.97,South,186,0.0,2.0,64,0.00,,,0.00,14,Wunderground v.1.15,2013-09-07 00:07:00,
2013-09-06 19:12:00,80.0,66.7,29.97,South,180,0.0,4.0,64,0.00,,,0.00,12,Wunderground v.1.15,2013-09-07 00:12:00,
2013-09-06 19:17:00,79.8,67.0,29.97,WSW,252,0.0,4.0,65,0.00,,,0.00,7,Wunderground v.1.15,2013-09-07 00:17:00,
2013-09-06 19:22:00,79.6,66.8,29.97,SSE,162,1.0,4.0,65,0.00,,,0.00,5,Wunderground v.1.15,2013-09-07 00:22:00,
2013-09-06 19:27:00,79.4,67.0,29.97,South,169,0.0,4.0,66,0.00,,,0.00,0,Wunderground v.1.15,2013-09-07 00:27:00,
2013-09-06 19:32:00,79.3,67.0,29.97,WSW,240,0.0,0.0,66,0.00,,,0.00,0,Wunderground v.1.15,2013-09-07 00:32:00,
2013-09-06 19:37:00,79.1,67.2,29.97,WSW,240,0.0,1.0,67,0.00,,,0.00,0,Wunderground v.1.15,2013-09-07 00:37:00,
2013-09-06 19:42:00,78.8,66.9,29.97,WSW,240,0.0,0.0,67,0.00,,,0.00,0,Wunderground v.1.15,2013-09-07 00:42:00,
2013-09-06 19:47:00,78.6,66.7,29.97,WSW,240,0.0,0.0,67,0.00,,,0.00,0,Wunderground v.1.15,2013-09-07 00:47:00,
2013-09-06 19:52:00,78.2,66.8,29.97,WSW,240,0.0,1.0,68,0.00,,,0.00,0,Wunderground v.1.15,2013-09-07 00:52:00,
2013-09-06 19:57:00,78.0,66.6,29.97,WSW,240,0.0,1.0,68,0.00,,,0.00,0,Wunderground v.1.15,2013-09-07 00:57:00,
2013-09-06 20:03:00,77.6,66.6,29.96,WSW,240,0.0,1.0,69,0.00,,,0.00,0,Wunderground v.1.15,2013-09-07 01:03:00,
2013-09-06 20:08:00,77.3,66.3,29.96,WSW,240,0.0,1.0,69,0.00,,,0.00,0,Wunderground v.1.15,2013-09-07 01:08:00,
2013-09-06 20:13:00,77.0,66.5,29.96,WSW,240,0.0,0.0,70,0.00,,,0.00,0,Wunderground v.1.15,2013-09-07 01:13:00,
2013-09-06 20:18:00,76.7,66.6,29.97,WSW,240,0.0,1.0,71,0.00,,,0.00,0,Wunderground v.1.15,2013-09-07 01:18:00,
2013-09-06 20:23:00,76.4,66.3,29.97,WSW,240,0.0,0.0,71,0.00,,,0.00,0,Wunderground v.1.15,2013-09-07 01:23:00,
2013-09-06 20:28:00,76.1,66.4,29.97,WSW,240,0.0,1.0,72,0.00,,,0.00,0,Wunderground v.1.15,2013-09-07 01:28:00,
2013-09-06 20:33:00,76.0,66.3,29.97,WSW,240,0.0,0.0,72,0.00,,,0.00,0,Wunderground v.1.15,2013-09-07 01:33:00,
2013-09-06 20:38:00,75.9,66.2,29.97,WSW,240,0.0,0.0,72,0.00,,,0.00,0,Wunderground v.1.15,2013-09-07 01:38:00,
2013-09-06 20:43:00,75.8,66.5,29.97,SW,215,0.0,1.0,73,0.00,,,0.00,0,Wunderground v.1.15,2013-09-07 01:43:00,
2013-09-06 20:48:00,75.7,66.4,29.97,SW,215,0.0,1.0,73,0.00,,,0.00,0,Wunderground v.1.15,2013-09-07 01:48:00,
2013-09-06 20:53:00,75.6,66.3,29.97,SW,215,0.0,0.0,73,0.00,,,0.00,0,Wunderground v.1.15,2013-09-07 01:53:00,
2013-09-06 20:58:00,75.4,66.1,29.97,SW,215,0.0,0.0,73,0.00,,,0.00,0,Wunderground v.1.15,2013-09-07 01:58:00,
2013-09-06 21:03:00,75.2,65.9,29.97,SW,215,0.0,0.0,73,0.00,,,0.00,0,Wunderground v.1.15,2013-09-07 02:03:00,
2013-09-06 21:08:00,75.0,65.8,29.97,SW,215,0.0,0.0,73,0.00,,,0.00,0,Wunderground v.1.15,2013-09-07 02:08:00,
2013-09-06 21:13:00,74.8,65.6,29.97,SW,215,0.0,0.0,73,0.00,,,0.00,0,Wunderground v.1.15,2013-09-07 02:13:00,
2013-09-06 21:18:00,74.5,65.7,29.97,SW,215,0.0,0.0,74,0.00,,,0.00,0,Wunderground v.1.15,2013-09-07 02:18:00,
2013-09-06 21:23:00,74.2,65.4,29.96,SW,215,0.0,0.0,74,0.00,,,0.00,0,Wunderground v.1.15,2013-09-07 02:23:00,
2013-09-06 21:28:00,74.0,65.6,29.96,SW,215,0.0,0.0,75,0.00,,,0.00,0,Wunderground v.1.15,2013-09-07 02:28:00,
2013-09-06 21:33:00,73.7,65.3,29.96,SW,215,0.0,1.0,75,0.00,,,0.00,0,Wunderground v.1.15,2013-09-07 02:33:00,
2013-09-06 21:38:00,73.4,65.4,29.96,SW,215,0.0,1.0,76,0.00,,,0.00,0,Wunderground v.1.15,2013-09-07 02:38:00,
2013-09-06 21:43:00,73.1,65.1,29.96,SW,215,0.0,0.0,76,0.00,,,0.00,0,Wunderground v.1.15,2013-09-07 02:43:00,
2013-09-06 21:48:00,72.9,65.3,29.96,SW,215,0.0,0.0,77,0.00,,,0.00,0,Wunderground v.1.15,2013-09-07 02:48:00,
2013-09-06 21:53:00,72.6,65.0,29.96,SW,215,0.0,0.0,77,0.00,,,0.00,0,Wunderground v.1.15,2013-09-07 02:53:00,
2013-09-06 21:58:00,72.3,64.7,29.96,SW,215,0.0,0.0,77,0.00,,,0.00,0,Wunderground v.1.15,2013-09-07 02:58:00,
2013-09-06 22:03:00,72.1,64.9,29.96,SW,215,0.0,0.0,78,0.00,,,0.00,0,Wunderground v.1.15,2013-09-07 03:03:00,
2013-09-06 22:08:00,71.8,64.6,29.96,SW,215,0.0,0.0,78,0.00,,,0.00,0,Wunderground v.1.15,2013-09-07 03:08:00,
2013-09-06 22:13:00,71.7,64.8,29.96,SW,216,0.0,1.0,79,0.00,,,0.00,0,Wunderground v.1.15,2013-09-07 03:13:00,
2013-09-06 22:18:00,71.5,64.6,29.96,SW,216,0.0,1.0,79,0.00,,,0.00,0,Wunderground v.1.15,2013-09-07 03:18:00,
2013-09-06 22:23:00,71.6,64.7,29.96,SSW,213,0.0,2.0,79,0.00,,,0.00,0,Wunderground v.1.15,2013-09-07 03:23:00,
2013-09-06 22:28:00,71.6,64.7,29.96,SSW,213,0.0,3.0,79,0.00,,,0.00,0,Wunderground v.1.15,2013-09-07 03:28:00,
2013-09-06 22:33:00,71.7,64.8,29.96,SSW,213,0.0,1.0,79,0.00,,,0.00,0,Wunderground v.1.15,2013-09-07 03:33:00,
2013-09-06 22:38:00,71.8,64.9,29.96,SSW,213,0.0,1.0,79,0.00,,,0.00,0,Wunderground v.1.15,2013-09-07 03:38:00,
2013-09-06 22:43:00,72.0,65.1,29.95,SSW,213,0.0,0.0,79,0.00,,,0.00,0,Wunderground v.1.15,2013-09-07 03:43:00,
2013-09-06 22:48:00,72.1,65.2,29.95,SSW,213,0.0,2.0,79,0.00,,,0.00,0,Wunderground v.1.15,2013-09-07 03:48:00,
2013-09-06 22:53:00,72.2,65.3,29.95,SSW,213,1.0,1.0,79,0.00,,,0.00,0,Wunderground v.1.15,2013-09-07 03:53:00,
2013-09-06 22:58:00,72.2,65.3,29.95,SSW,209,0.0,2.0,79,0.00,,,0.00,0,Wunderground v.1.15,2013-09-07 03:58:00,
2013-09-06 23:01:00,72.2,65.3,29.95,SSW,209,0.0,0.0,79,0.00,,,0.00,0,Wunderground v.1.15,2013-09-07 04:01:00,
2013-09-06 23:02:00,72.2,65.3,29.95,SSW,211,0.0,0.0,79,0.00,,,0.00,0,Wunderground v.1.15,2013-09-07 04:02:00,
2013-09-06 23:07:00,72.2,65.0,29.95,SSW,211,2.0,3.0,78,0.00,,,0.00,0,Wunderground v.1.15,2013-09-07 04:07:00,
2013-09-06 23:12:00,72.3,65.1,29.95,SW,227,1.0,3.0,78,0.00,,,0.00,0,Wunderground v.1.15,2013-09-07 04:12:00,
2013-09-06 23:17:00,72.4,65.2,29.95,South,180,0.0,5.0,78,0.00,,,0.00,0,Wunderground v.1.15,2013-09-07 04:17:00,
2013-09-06 23:22:00,72.4,65.2,29.95,South,180,0.0,0.0,78,0.00,,,0.00,0,Wunderground v.1.15,2013-09-07 04:22:00,
2013-09-06 23:27:00,72.5,65.2,29.95,South,190,0.0,1.0,78,0.00,,,0.00,0,Wunderground v.1.15,2013-09-07 04:27:00,
2013-09-06 23:32:00,72.5,65.2,29.95,South,190,0.0,0.0,78,0.00,,,0.00,0,Wunderground v.1.15,2013-09-07 04:32:00,
2013-09-06 23:37:00,72.4,65.2,29.95,SW,227,0.0,3.0,78,0.00,,,0.00,0,Wunderground v.1.15,2013-09-07 04:37:00,
2013-09-06 23:42:00,72.3,64.7,29.95,SW,227,0.0,1.0,77,0.00,,,0.00,0,Wunderground v.1.15,2013-09-07 04:42:00,
2013-09-06 23:47:00,72.2,64.6,29.95,SW,227,0.0,1.0,77,0.00,,,0.00,0,Wunderground v.1.15,2013-09-07 04:47:00,
2013-09-06 23:52:00,72.1,64.5,29.95,SW,227,0.0,2.0,77,0.00,,,0.00,0,Wunderground v.1.15,2013-09-07 04:52:00,
2013-09-06 23:57:00,72.0,64.0,29.95,SW,227,0.0,2.0,76,0.00,,,0.00,0,Wunderground v.1.15,2013-09-07 04:57:00,